Showing default

YAOGAN-35 02A, 52907

Orbit data source: Space-Track

YAOGAN-35 02A, 52907 is a payload satellite owned by PLA GAD (CN) in LEO that was launched on Thu, 23 Jun 2022 UTC via a CHANG ZHENG 2D launch vehicle from the Xichang Space Center, China (XSC). Payload-class satellites include a variety of spacecraft equipped with specific instruments for various scientific and technological missions. These include communications satellites like Starlink; space stations such as the ISS; scientific satellites like the Hubble; Earth observation satellites from companies like Planet Labs, Umbra, and HawkEye 360; GPS; miniature CubeSats for education and research; and military/defense satellites.

Loading next visibility...
Identifier
52907, 2022-068A
Orbit
LEO
Country
Flag of CNCN / PRC
Related business
Manufacturer
DFH
Mission
Operational Defense Sigint
Bus & Motor
Unknown
Mass
~300 kg wet, ~300 kg dry
Launch date (UTC)
2022-06-23 (4 years ago)
Launch vehicle
CHANG ZHENG 2D
Launch site
Xichang Space Center, China (XSC)
Object type
Payload
Rocket body
Debris
Shape & HBR
Box + 2 Pan, 2.5 m
Radar Cross Section
11.063 m², Large (>1 m²)

Expand to show TLE details & history
Last TLE update: 22 hours ago

TLE from 22 hours ago
0 YAOGAN-35 02A
1 52907U 22068A   26172.52152411  .00005487  00000-0  22096-3 0  9996
2 52907  34.9904 111.2207 0008989 119.2448 240.9166 15.24186006222558
Epoch: 2026-06-21T12:30Z
TLE epoch observation values (Epoch: 2026-06-21T12:30:59.683Z)
Latitude
-0.00003°
Longitude
13.75138°
Altitude
495.142 km
Speed
7.618 km/s
True Right ascension
07h 24m 52s
True Declination
0° 00' 00"
Sunlit
Object was in daylight at epoch
Visualization orbit readout
Latitude
Unknown
Longitude
Unknown
Altitude
Unknown
Speed
Unknown
Apparent Right ascension
Unknown
Apparent Declination
Unknown
Sunlit
N/A
Visualization observer readout
Local Sidereal Time
21:29:13
Azimuth
Unknown
Elevation
Unknown
Doppler factor
Unknown
Orbital elements
Apogee altitude
502.664 km
Perigee altitude
490.305 km
Semi-major axis
6,874.621 km
Eccentricity
0.0009
Inclination
34.9904°
RAAN
111.2207°
Arg. of periapsis
119.2448°
True anomaly
240.82663°
Mean anomaly
240.9166°
Eccentric anomaly
240.87161°
Mean motion
3.80776 °/min
Orbital period
94.54 mins
BSTAR
0.00022096
Loading maneuver chart data...
Computing Atmospheric mass density...
Loading historical data...
Loading historical data...
Loading historical data...
Loading historical data...
Loading historical data...
Loading historical data...
Loading historical data...

Documentation

Showing up to 5 results
|